Location: *
(37.5724°S, 58.0067°E)
Time: 20:01:50
(UTC+00:00)

Envisat - Pass Details

Date: 05 December 2022
Orbit: 763 x 765 km, 98.2° (Epoch: 29 January)

Event Time Altitude Azimuth Distance (km) Brightness Sun altitude
Rises 21:54:19 0° 70° (ENE) 3,235 6.4 -24.1°
Reaches altitude 10° 21:58:42 10° 107° (ESE) 2,321 6.1 -23.7°
Maximum altitude 21:59:49 11° 119° (ESE) 2,275 6.2 -23.6°
Drops below altitude 10° 22:00:56 10° 132° (SE) 2,326 6.5 -23.5°
Sets 22:05:20 0° 168° (SSE) 3,265 7.5 -23.0°
